Preview of NWS' New Version of Forecast
This preview is not operational and should not be used for support decisions.

Regional Weather Roundup (RWR)

Issued by National Weather Service (NWS)

                            
000
ASUS45 KBOU 171210
RWRCO 

WEATHER ROUNDUP FOR COLORADO
NATIONAL WEATHER SERVICE DENVER/BOULDER CO
500 AM MST SUN FEB 17 2019

NOTE: "FAIR" INDICATES FEW OR NO CLOUDS BELOW 12000 FEET WITH NO
SIGNIFICANT WEATHER AND/OR OBSTRUCTIONS TO VISIBILITY.

COZ001>005-013-030-031-171300-
...NORTHWEST COLORADO...
  
CITY           SKY/WX    TMP DP  RH WIND       PRES   REMARKS
CRAIG          CLOUDY    11   6  81 N3        29.82R                  
HAYDEN         CLOUDY    11   6  81 E12       29.80R WCI  -3          
MEEKER         FAIR       8   3  80 CALM      29.81R                  
RANGELY        FAIR       3   0  88 CALM      29.85R                  
RABBIT EARS PA LGT SNOW N/A N/A N/A W6        29.63R                  
STEAMBOAT SPGS CLOUDY     6   4  92 CALM      29.78R                  
WALDEN         FAIR       0  -6  78 SE3       29.72R                  
$$

COZ006>008-011-171300-
...WEST CENTRAL VALLEYS...
  
CITY           SKY/WX    TMP DP  RH WIND       PRES   REMARKS
GRAND JUNCTION FAIR      22  15  75 E9        29.83S WCI  12          
MONTROSE       FAIR      18   6  59 SE7       29.86R WCI   9          
EAGLE          FAIR       2  -2  83 NE3       29.86R                  
RIFLE          MOCLDY    12   8  84 CALM      29.84S                  
DELTA          MOCLDY    24  15  68 E6        29.85S WCI  17          
NUCLA          FAIR      19   9  63 E6        29.85S WCI  11          
$$

COZ017>023-064>068-171300-
...SOUTHWEST COLORADO...
  
CITY           SKY/WX    TMP DP  RH WIND       PRES   REMARKS
DURANGO        LGT SNOW   5   2  87 E6        29.82F FOG     WCI  -6  
CORTEZ         FAIR      16   8  71 NE3       29.83S                  
PAGOSA SPRINGS NOT AVBL                                               
TELLURIDE      FAIR       5   0  78 SE7       29.75S WCI  -7          
WOLF CREEK PAS   N/A     -4  -6  92 SW10      29.69S WCI -21          
$$

COZ009-010-012-014-032>034-037-058>063-171300-
...CENTRAL COLORADO...
  
CITY           SKY/WX    TMP DP  RH WIND       PRES   REMARKS
ASPEN          FAIR       6  -3  66 S7        29.74S WCI  -6          
BUENA VISTA    FAIR       6  -4  62 S3        29.75R                  
COPPER MTN     CLOUDY     1  -6  71 MISG      29.58S                  
BERTHOUD PASS  CLOUDY    -6 -17  59 W26G33    29.52S WCI -32          
COTTONWOOD PAS FAIR      10  -2  56 NW6       29.67S WCI   1          
GUNNISON       FAIR     -14 -19  79 CALM      29.85                   
GRANBY         FAIR      -2  -4  87 CALM      29.75R                  
KREMMLING      FAIR      -4  -8  84 CALM      29.79R                  
LEADVILLE      FAIR      -4  -9  79 NE3       29.66S                  
MONARCH PASS   CLOUDY     0  -6  78 MISG      29.71S                  
SALIDA         FAIR      12   0  56 N7        29.84R WCI   2          
SUNLIGHT         N/A    N/A N/A N/A MISG      29.69S                  
WILKERSON PASS FAIR       1  -8  66 W9G18     29.62F WCI -14          
$$

COZ069>075-171300-
...SAN LUIS VALLEY/SANGRE DE CRISTO MOUNTAINS...
  
CITY           SKY/WX    TMP DP  RH WIND       PRES   REMARKS
ALAMOSA        FAIR      -1  -6  79 CALM      29.80R                  
DEL NORTE      FAIR       3  -8  58 W17       29.79S WCI -17          
LA VETA PASS   NOT AVBL                                               
SAGUACHE       FAIR       3  -4  72 CALM      29.80R                  
$$

COZ035-036-038>040-171300-
...NORTHERN COLORADO FRONT RANGE...
  
CITY           SKY/WX    TMP DP  RH WIND       PRES   REMARKS
DENVER INTL AP FAIR      15   2  56 SW9       29.75R WCI   3          
AURORA         PTCLDY    16   2  55 SW10      29.75R WCI   3          
FRONT RANGE AP NOT AVBL                                               
ERIE MUNI ARPT FAIR      27   4  37 NW5       29.81R WCI  22          
BOULDER MUN AP FAIR      28   3  34 W13G23    29.73S WCI  18          
CENTENNIAL     FAIR      15   2  56 SW6       29.74R WCI   6          
BROOMFIELD     FAIR      28   0  29 CALM      29.74S                  
FORT COLLINS   FAIR      17   8  67 SE10      29.76R WCI   5          
LONGMONT       FAIR      28   1  32 CALM      29.76S                  
$$

COZ041-046-047-076>085-087-088-171300-
...PIKES PEAK/PALMER DIVIDE AND SOUTHERN FOOTHILLS...
  
CITY           SKY/WX    TMP DP  RH WIND       PRES   REMARKS
COLO. SPRINGS  FAIR      21  -2  36 N14G24    29.75R WCI   8          
A. F. ACADEMY  FAIR      19  -5  34 N16       29.72S WCI   4          
SCHRIEVER AFB  NOT AVBL                                               
CHEYENNE MTN   FAIR      18  -5  35 CALM      29.68R                  
ELLICOTT       NOT AVBL                                               
FALCON         FAIR      19  -5  34 NW16      29.72R WCI   4          
FORT CARSON    FAIR      20  -4  33 CALM      29.74R                  
LIMON          FAIR      13   3  64 NW8       29.76R WCI   2          
MONUMENT HILL  FAIR      10  -2  56 SW8       29.74R WCI  -1          
CANON CITY     NOT AVBL                                               
WALSENBURG     NOT AVBL                                               
TRINIDAD       FAIR      14   7  73 NW9       29.78R WCI   2          
$$

COZ042>045-048>051-090-091-171300-
...NORTHEAST COLORADO...
  
CITY           SKY/WX    TMP DP  RH WIND       PRES   REMARKS
GREELEY ARPT   NOT AVBL                                               
AKRON          FAIR      14  12  92 W8        29.77R WCI   3          
BURLINGTON     FAIR      13   9  84 N10       29.78R WCI   0          
WRAY           FAIR      10   7  85 W7        29.83R WCI   0          
YUMA           FAIR       9   5  85 CALM      29.80R                  
STERLING       FAIR      12  10  92 N3        29.80R                  
HOLYOKE        FAIR      12   9  85 NW8       29.82R WCI   1          
FORT MORGAN      N/A     16  13  88 W6        29.79R WCI   7          
$$

COZ086-089-092>099-171300-
...SOUTHEAST COLORADO...
  
CITY           SKY/WX    TMP DP  RH WIND       PRES   REMARKS
PUEBLO         FAIR      10   4  76 CALM      29.80R                  
LA JUNTA       FAIR      18  14  84 W15       29.81S WCI   4          
LAMAR          FAIR      15  12  88 SW10      29.80R WCI   2          
SPRINGFIELD      N/A     16  13  88 W9        29.79R WCI   4          
$$